Lid_Strength_Index
1 1 2 1 1 2 6 8 11 5 3 10 10 12 10 9 9 8 9 8 10 12 12 12 13 13 11 8 9 11 11 13 16 14 11 11 12 12 14 16 17 17 18 16
1 2 2 1 1 3 8 10 8 4 5 12 12 9 9 9 10 9 9 10 9 9 11 14 11 11 8 8 9 11 10 13 17 17 13 12 13 12 13 13 14 16 18 17
2 1 2 1 1 2 7 9 11 9 9 10 11 11 11 11 8 9 8 9 8 10 11 10 12 11 9 8 8 8 9 13 14 17 15 12 14 12 12 14 17 17 17 15
2 2 2 1 1 2 6 10 12 10 12 12 12 11 10 11 11 9 9 10 10 11 13 12 12 11 10 9 8 10 11 14 14 13 13 13 13 13 13 14 15 16 15 14
2 2 2 2 1 2 8 10 12 11 12 12 12 12 13 12 12 11 11 11 11 11 12 11 12 10 11 11 10 11 11 14 14 16 14 14 16 15 15 14 13 13 13 13
1 2 2 2 1 3 8 9 9 12 12 13 13 13 12 12 11 11 11 10 12 13 13 12 11 10 10 10 11 12 13 15 17 19 16 15 17 15 14 15 14 14 16 14
1 2 2 2 2 3 7 8 8 12 14 13 12 11 11 12 12 12 12 11 12 11 11 11 12 12 12 12 13 12 14 15 16 18 17 19 15 12 12 13 13 13 12 11
1 2 2 2 2 1 6 7 9 11 14 13 12 12 12 12 12 12 12 12 12 12 12 14 14 14 14 13 12 12 12 14 16 17 17 15 13 12 13 13 14 11 11 11
1 2 3 3 3 2 5 6 7 9 12 13 12 13 13 14 14 13 13 12 10 10 11 12 16 17 14 15 14 11 12 13 14 19 20 19 15 12 11 12 16 11 10 11
2 2 2 3 3 3 4 6 6 7 11 10 11 13 13 12 13 14 14 13 12 11 13 14 16 15 15 17 17 17 18 17 18 18 19 17 13 11 10 16 16 11 11 11
2 2 2 3 3 4 5 6 6 6 9 9 8 9 12 12 12 12 12 12 12 13 14 15 16 16 16 17 16 16 17 19 18 18 19 20 11 11 13 12 11 11 11 11
3 2 2 3 3 3 4 7 5 6 7 8 6 6 7 9 9 11 12 11 13 13 14 15 16 16 17 17 18 16 16 14 15 15 15 11 11 11 11 10 11 12 12 12
3 3 2 2 2 3 4 6 7 7 8 9 8 8 6 5 7 7 11 11 10 10 10 13 14 15 15 17 17 17 14 12 13 13 12 12 11 11 11 11 11 11 11 11
3 3 2 2 2 3 4 6 5 6 8 10 9 6 7 6 5 6 7 8 7 8 8 11 12 12 13 15 14 15 13 13 13 13 12 12 12 11 11 11 11 12 12 12
3 3 2 2 2 2 3 4 5 5 7 10 9 7 7 7 5 6 7 8 8 9 10 12 12 11 12 14 14 14 12 13 14 14 12 12 12 11 11 11 12 11 12 13
3 3 3 2 2 2 4 7 5 4 5 9 14 9 9 7 7 7 7 8 8 9 10 11 11 10 13 15 14 12 12 11 10 11 11 11 11 11 12 12 12 12 13 14
3 3 3 2 3 4 6 8 6 5 4 10 13 12 10 9 8 8 8 7 9 9 11 12 11 11 12 14 14 13 12 11 11 11 11 12 12 12 12 13 13 12 12 12
3 3 3 3 3 4 6 6 5 4 6 8 14 13 12 9 11 11 9 10 9 10 11 10 11 10 11 13 12 13 11 12 11 12 11 12 13 14 15 13 13 14 14 14
4 4 3 5 6 7 8 5 5 5 7 11 12 14 14 10 11 11 10 10 12 10 11 11 11 12 13 12 12 12 11 12 12 13 15 17 15 14 14 14 14 14 14 14
4 6 8 10 8 6 6 7 9 10 10 10 12 11 13 10 11 12 13 12 13 15 12 10 12 13 11 11 10 10 11 12 14 16 17 20 19 15 15 15 14 14 13 13
7 10 11 8 6 8 10 12 13 12 13 11 11 11 12 10 13 13 12 14 14 17 17 14 15 17 14 12 13 14 15 14 14 15 16 15 14 14 14 14 14 13 14 16
7 9 8 8 10 12 15 14 14 14 16 13 13 12 12 12 11 13 12 15 15 18 13 15 18 15 14 13 15 15 15 14 14 14 14 15 14 14 14 14 14 15 16 17
8 11 13 13 13 16 18 20 17 16 15 14 13 14 13 13 13 14 14 16 17 15 17 19 18 16 15 16 15 15 16 16 15 16 16 15 14 14 15 15 17 17 18 18
11 13 16 16 18 17 18 19 19 17 15 13 13 14 14 14 14 15 17 16 16 19 20 21 17 17 16 15 15 16 17 16 15 16 16 17 17 16 17 17 17 18 19 18
13 14 17 17 19 17 18 16 16 15 13 13 14 15 15 15 16 15 16 18 19 19 20 17 18 20 19 16 16 16 16 16 16 16 16 17 18 18 18 18 18 18 18 17
13 15 19 17 16 17 21 23 16 15 14 15 17 16 18 17 18 18 19 20 20 18 16 18 20 16 16 16 16 16 16 16 15 15 15 16 17 18 18 18 18 18 17 17
14 17 15 19 18 16 18 17 16 13 17 20 16 22 22 17 19 21 19 18 16 16 18 20 18 17 15 14 15 16 16 16 16 16 15 15 16 18 18 18 17 17 16 16